TimeCST,TemperatureF,Dew PointF,Humidity,Sea Level PressureIn,VisibilityMPH,Wind Direction,Wind SpeedMPH,Gust SpeedMPH,PrecipitationIn,Events,Conditions,WindDirDegrees,DateUTC
12:58 AM,30.2,26.1,85,30.27,10.0,Calm,Calm,-,N/A,,Clear,0,2013-02-20 06:58:00
1:58 AM,28.0,25.2,89,30.28,10.0,Calm,Calm,-,N/A,,Clear,0,2013-02-20 07:58:00
2:58 AM,28.8,26.8,92,30.27,10.0,West,2.3,-,N/A,,Partly Cloudy,280,2013-02-20 08:58:00
3:58 AM,29.3,27.3,92,30.30,10.0,West,1.2,-,N/A,,Overcast,270,2013-02-20 09:58:00
4:58 AM,29.8,27.9,92,30.27,10.0,NNW,2.3,-,N/A,,Partly Cloudy,330,2013-02-20 10:58:00
5:58 AM,31.1,25.0,78,30.29,10.0,North,6.9,-,N/A,,Clear,360,2013-02-20 11:58:00
6:58 AM,31.6,23.2,71,30.29,10.0,North,5.8,-,N/A,,Partly Cloudy,10,2013-02-20 12:58:00
7:58 AM,34.2,22.3,62,30.32,10.0,NNW,5.8,-,N/A,,Overcast,330,2013-02-20 13:58:00
8:58 AM,36.1,21.0,54,30.32,10.0,NNW,4.6,-,N/A,,Mostly Cloudy,330,2013-02-20 14:58:00
9:58 AM,38.7,18.0,43,30.35,10.0,NNW,6.9,-,N/A,,Mostly Cloudy,340,2013-02-20 15:58:00
10:55 AM,39.2,15.8,39,30.31,10.0,North,5.8,-,N/A,,Mostly Cloudy,350,2013-02-20 16:55:00
11:55 AM,39.2,14.0,36,30.29,10.0,NNE,5.8,-,N/A,,Scattered Clouds,20,2013-02-20 17:55:00
12:55 PM,41.0,15.8,36,30.30,10.0,North,2.3,-,N/A,,Partly Cloudy,10,2013-02-20 18:55:00
1:04 PM,41.0,14.0,33,30.29,10.0,Calm,Calm,-,N/A,Rain,Light Rain,360,2013-02-20 19:04:00
1:58 PM,39.6,20.3,46,30.29,10.0,North,8.1,-,0.00,Rain,Light Rain,10,2013-02-20 19:58:00
2:13 PM,39.2,23.0,52,30.25,10.0,North,8.1,-,N/A,Rain,Light Rain,360,2013-02-20 20:13:00
2:23 PM,39.2,26.6,61,30.23,10.0,North,8.1,-,N/A,Rain,Light Rain,10,2013-02-20 20:23:00
2:38 PM,37.4,28.4,70,30.20,10.0,NNE,11.5,-,N/A,Rain,Light Rain,30,2013-02-20 20:38:00
2:43 PM,37.4,28.4,70,30.19,10.0,NNE,10.4,-,N/A,Rain,Light Rain,30,2013-02-20 20:43:00
2:52 PM,39.2,28.4,65,30.18,10.0,NE,10.4,-,N/A,,Mostly Cloudy,50,2013-02-20 20:52:00
2:58 PM,39.6,28.4,64,30.20,10.0,NE,9.2,-,0.00,,Mostly Cloudy,50,2013-02-20 20:58:00
3:58 PM,43.0,21.9,43,30.24,10.0,NNE,3.5,-,N/A,,Mostly Cloudy,30,2013-02-20 21:58:00
4:58 PM,43.2,19.9,40,30.22,10.0,Calm,Calm,-,N/A,,Partly Cloudy,0,2013-02-20 22:58:00
5:58 PM,40.8,21.7,47,30.22,10.0,NE,1.2,-,N/A,,Mostly Cloudy,50,2013-02-20 23:58:00
6:58 PM,36.3,27.9,71,30.21,10.0,Calm,Calm,-,N/A,,Partly Cloudy,0,2013-02-21 00:58:00
7:58 PM,36.9,31.5,81,30.23,10.0,North,2.3,-,N/A,,Overcast,350,2013-02-21 01:58:00
8:58 PM,38.1,24.8,59,30.24,10.0,NE,5.8,-,N/A,,Overcast,40,2013-02-21 02:58:00
9:58 PM,39.0,23.7,54,30.21,10.0,ENE,5.8,-,N/A,,Overcast,70,2013-02-21 03:58:00
10:58 PM,39.0,24.3,55,30.19,10.0,NE,1.2,-,N/A,,Mostly Cloudy,40,2013-02-21 04:58:00
11:58 PM,37.9,23.2,55,30.17,10.0,ENE,4.6,-,N/A,,Overcast,60,2013-02-21 05:58:00